DW2147 Weather Reports


Display with metric or nautical units.
time (UTC)temp
F
wind
direction
speed
MPH
gust
MPH
rain 1hr
in
rain 24hr
in
rain mn
in
humidity
%
barometer
mb
20260905111932 71 236 0.0 0.0 0.00 0.12 0.00 79 1014.1
20260905111434 71 0 0.0 2.0 0.00 0.12 0.00 79 1014.1
20260905110700 71 0 1.0 2.0 0.00 0.12 0.00 79 1014.2
20260905110430 71 0 0.0 2.0 0.00 0.12 0.00 79 1014.1
20260905105659 71 0 0.0 0.0 0.00 0.12 0.00 78 1014.0
20260905105428 71 0 0.0 2.0 0.00 0.12 0.00 78 1014.2
20260905104656 71 0 0.0 2.0 0.00 0.12 0.00 78 1014.0
20260905104427 71 0 0.0 2.0 0.00 0.12 0.00 78 1013.9
20260905103920 71 0 0.0 3.0 0.00 0.12 0.00 78 1014.0
20260905103147 71 0 1.0 3.0 0.00 0.12 0.00 78 1013.9
20260905102646 71 0 1.0 2.0 0.00 0.12 0.00 78 1013.6
20260905102144 71 0 1.0 4.0 0.00 0.12 0.00 78 1013.7
20260905101915 71 0 2.0 4.0 0.00 0.12 0.00 79 1013.7
20260905101137 71 0 1.0 4.0 0.00 0.12 0.00 79 1013.8
20260905100636 71 0 1.0 2.0 0.00 0.12 0.00 79 1013.8
20260905100133 71 0 1.0 6.0 0.00 0.12 0.00 79 1013.7
20260905095633 71 0 1.0 6.0 0.00 0.12 0.00 79 1013.8
20260905095131 71 0 1.0 3.0 0.00 0.13 0.00 79 1013.8
20260905094628 71 0 2.0 4.0 0.00 0.13 0.00 78 1013.8
20260905094128 71 0 2.0 4.0 0.00 0.14 0.00 78 1013.7
20260905093626 71 0 1.0 3.0 0.00 0.15 0.00 78 1013.7
20260905093125 71 0 1.0 3.0 0.00 0.15 0.00 78 1013.7
20260905092858 71 0 1.0 3.0 0.00 0.16 0.00 78 1013.7
20260905092400 71 0 0.0 3.0 0.00 0.16 0.00 78 1013.6
20260905091624 71 0 0.0 0.0 0.00 0.16 0.00 78 1013.6
20260905091122 71 0 0.0 1.0 0.00 0.16 0.00 78 1013.6
20260905090622 71 0 0.0 1.0 0.00 0.16 0.00 78 1013.6
20260905090353 71 0 1.0 2.0 0.00 0.16 0.00 78 1013.6
20260905085620 71 0 1.0 2.0 0.00 0.17 0.00 78 1013.5
20260905085120 71 0 1.0 2.0 0.00 0.19 0.00 78 1013.6
20260905084847 71 0 0.0 0.0 0.00 0.22 0.00 78 1013.5
20260905084347 71 0 0.0 0.0 0.00 0.30 0.00 78 1013.6
20260905083615 71 0 0.0 0.0 0.00 0.32 0.00 78 1013.8
20260905083111 71 0 0.0 0.0 0.00 0.34 0.00 78 1013.7
20260905082610 71 0 0.0 0.0 0.00 0.36 0.00 78 1013.8
20260905082340 71 0 0.0 2.0 0.00 0.43 0.00 78 1013.7
20260905081603 71 0 1.0 4.0 0.00 0.47 0.00 78 1013.6
20260905081103 71 0 1.0 4.0 0.00 0.47 0.00 78 1013.7
20260905080606 71 0 0.0 4.0 0.00 0.47 0.00 78 1013.7
20260905075604 71 0 0.0 0.0 0.00 0.49 0.00 78 1013.9
20260905075104 71 0 0.0 0.0 0.00 0.49 0.00 78 1014.1
20260905074602 71 0 0.0 0.0 0.00 0.49 0.00 78 1014.0
20260905074102 71 0 0.0 0.0 0.00 0.50 0.00 78 1014.1
20260905073602 71 0 0.0 0.0 0.00 0.51 0.00 78 1014.1
20260905073059 71 0 0.0 0.0 0.00 0.51 0.00 78 1014.3
20260905072558 71 0 0.0 0.0 0.00 0.51 0.00 78 1014.4
20260905072058 71 0 0.0 0.0 0.00 0.51 0.00 78 1014.5
20260905071557 71 0 0.0 0.0 0.00 0.51 0.00 78 1014.4
20260905071054 71 0 0.0 2.0 0.00 0.51 0.00 77 1014.5
20260905070554 71 0 0.0 2.0 0.00 0.51 0.00 77 1014.5
20260905070053 71 0 1.0 2.0 0.00 0.51 0.00 77 1014.5
20260905065551 71 0 0.0 2.0 0.00 0.51 0.00 77 1014.6
20260905065050 71 0 0.0 3.0 0.00 0.51 0.00 78 1014.6
20260905064823 71 0 1.0 4.0 0.00 0.51 0.00 77 1014.6
20260905064047 71 0 1.0 4.0 0.00 0.51 0.00 77 1014.9
20260905063547 71 0 1.0 4.0 0.00 0.51 0.00 77 1014.9
20260905063048 71 0 1.0 2.0 0.00 0.51 0.00 78 1015.0
20260905062545 71 0 1.0 4.0 0.00 0.51 0.00 78 1015.1
20260905062045 71 0 1.0 4.0 0.00 0.51 0.00 78 1015.1
20260905061546 71 0 1.0 4.0 0.00 0.51 0.00 78 1015.1
20260905061040 71 0 2.0 5.0 0.00 0.51 0.00 78 1015.2
20260905060541 71 0 2.0 6.0 0.00 0.51 0.00 78 1015.2
20260905060040 71 0 3.0 8.0 0.00 0.52 0.00 78 1015.3
20260905055541 71 0 3.0 8.0 0.00 0.52 0.00 78 1015.4
20260905055041 71 0 2.0 5.0 0.00 0.52 0.00 78 1015.3
20260905054542 71 0 1.0 4.0 0.00 0.52 0.00 78 1015.6
20260905054037 71 0 1.0 4.0 0.00 0.52 0.00 78 1015.7
20260905053537 71 0 1.0 4.0 0.00 0.52 0.00 78 1015.7
20260905053040 71 0 1.0 4.0 0.00 0.52 0.00 78 1015.7
20260905052537 71 0 2.0 4.0 0.00 0.52 0.00 78 1015.6
20260905052036 71 0 2.0 5.0 0.00 0.52 0.00 78 1015.7
20260905051537 71 0 2.0 5.0 0.00 0.52 0.00 78 1015.7
20260905051033 71 0 2.0 4.0 0.00 0.52 0.00 78 1015.8
20260905050532 71 0 2.0 4.0 0.00 0.52 0.00 78 1015.9
20260905050033 71 0 2.0 4.0 0.00 0.52 0.00 78 1015.7
20260905045533 71 0 2.0 4.0 0.00 0.52 0.00 78 1015.9
20260905045033 71 0 2.0 5.0 0.00 0.52 0.00 78 1015.7
20260905044805 71 0 2.0 5.0 0.00 0.52 0.00 78 1015.8
20260905044032 71 0 2.0 5.0 0.00 0.52 0.00 78 1015.9
20260905043533 71 0 2.0 5.0 0.00 0.52 0.00 78 1015.9
20260905043032 71 0 2.0 5.0 0.00 0.52 0.00 78 1015.9
20260905042531 71 0 2.0 4.0 0.00 0.52 0.00 78 1015.9
20260905042306 71 0 1.0 4.0 0.00 0.52 0.00 78 1015.9
20260905041530 71 0 1.0 4.0 0.00 0.52 0.00 78 1015.9
20260905041027 71 0 1.0 4.0 0.00 0.52 0.00 78 1015.7
20260905040526 71 0 1.0 4.0 0.00 0.52 0.00 78 1015.8
20260905040257 71 0 2.0 4.0 0.00 0.52 0.00 78 1015.8
20260905035523 71 0 1.0 4.0 0.00 0.52 0.52 78 1015.7
20260905035253 71 0 1.0 3.0 0.00 0.52 0.52 78 1015.8
20260905034523 71 0 1.0 3.0 0.00 0.52 0.52 78 1015.9
20260905034026 71 0 0.0 3.0 0.00 0.52 0.52 78 1015.9
20260905034021 71 0 0.0 3.0 0.00 0.52 0.52 78 1015.8
20260905033250 71 0 1.0 3.0 0.00 0.52 0.52 78 1015.9
20260905032750 71 0 2.0 3.0 0.00 0.52 0.52 78 1015.9
20260905032249 71 0 2.0 4.0 0.00 0.52 0.52 78 1015.9
20260905031749 71 0 1.0 4.0 0.00 0.52 0.52 78 1015.9
20260905031020 71 0 2.0 4.0 0.00 0.52 0.52 78 1015.9
20260905030514 71 0 2.0 4.0 0.00 0.52 0.52 78 1016.0
20260905030014 71 0 1.0 4.0 0.00 0.52 0.52 78 1015.9
20260905025519 71 0 0.0 2.0 0.00 0.52 0.52 78 1015.7
20260905025515 71 0 0.0 0.0 0.00 0.52 0.52 78 1015.9
20260905024515 71 0 0.0 2.0 0.00 0.52 0.52 78 1015.8
20260905024015 72 0 0.0 0.0 0.00 0.52 0.52 78 1015.7
20260905023510 72 0 0.0 3.0 0.00 0.52 0.52 78 1015.7
20260905023011 72 0 1.0 3.0 0.00 0.52 0.52 78 1015.8
20260905022514 72 0 1.0 3.0 0.00 0.52 0.52 78 1015.8
20260905022011 72 0 1.0 3.0 0.00 0.52 0.52 78 1015.9
20260905021510 72 0 2.0 6.0 0.00 0.52 0.52 78 1015.9
20260905021012 72 0 3.0 6.0 0.00 0.52 0.52 78 1015.9
20260905020506 72 0 2.0 4.0 0.00 0.52 0.52 78 1015.7
20260905020237 72 0 1.0 4.0 0.00 0.52 0.52 78 1015.9
20260905015502 72 0 0.0 3.0 0.00 0.52 0.52 77 1016.0
20260905015002 72 171 0.0 2.0 0.00 0.52 0.52 77 1016.1
20260905014734 72 0 1.0 3.0 0.00 0.52 0.52 77 1015.9
20260905014002 72 0 1.0 3.0 0.00 0.55 0.52 77 1015.7
20260905013736 73 0 1.0 3.0 0.00 0.66 0.52 77 1015.6
20260905013003 73 0 2.0 4.0 0.00 0.76 0.52 77 1015.7
20260905012736 73 0 2.0 4.0 0.00 0.84 0.52 77 1015.7
20260905012000 73 171 2.0 4.0 0.00 0.98 0.52 77 1015.7
20260905011458 73 0 1.0 5.0 0.00 1.04 0.52 77 1015.7
20260905010958 73 180 1.0 5.0 0.00 1.04 0.52 77 1015.6
20260905010457 73 0 1.0 3.0 0.00 1.04 0.52 77 1015.6
20260905005959 73 0 2.0 5.0 0.00 1.04 0.52 77 1015.4
20260905005955 73 0 2.0 3.0 0.00 1.04 0.52 77 1015.5
20260905004948 73 0 2.0 5.0 0.00 1.04 0.52 77 1015.3
20260905004448 74 0 2.0 5.0 0.00 1.05 0.52 76 1015.4
20260905004217 74 0 2.0 4.0 0.00 1.05 0.52 76 1015.2
20260905003447 74 0 1.0 3.0 0.00 1.06 0.52 76 1015.2
20260905002945 74 0 1.0 4.0 0.00 1.12 0.52 76 1015.1
20260905002443 74 0 1.0 4.0 0.00 1.21 0.52 76 1015.1
20260905001941 74 0 1.0 3.0 0.00 1.21 0.52 76 1015.0
20260905001439 74 0 2.0 4.0 0.00 1.21 0.52 76 1015.0
20260905001209 74 0 2.0 5.0 0.00 1.21 0.52 76 1015.0
20260905000439 74 213 2.0 5.0 0.00 1.21 0.52 76 1015.2
20260904235937 75 0 2.0 5.0 0.00 1.21 0.52 76 1015.2
20260904235440 75 0 2.0 5.0 0.00 1.21 0.52 76 1015.1
20260904234935 75 0 2.0 4.0 0.00 1.21 0.52 76 1015.2
20260904234432 75 0 2.0 5.0 0.00 1.21 0.52 76 1015.1
20260904233930 75 0 3.0 6.0 0.00 1.21 0.52 75 1015.0
20260904233702 75 0 2.0 6.0 0.00 1.21 0.52 75 1015.1
20260904232930 76 0 1.0 6.0 0.00 1.21 0.52 76 1015.1
20260904232429 76 0 2.0 6.0 0.00 1.21 0.52 76 1014.9
20260904231922 76 0 3.0 6.0 0.00 1.21 0.52 76 1014.9
20260904231423 76 0 3.0 6.0 0.00 1.21 0.52 75 1014.9
20260904230925 76 0 3.0 6.0 0.00 1.21 0.52 75 1014.9
20260904230423 77 0 3.0 5.0 0.00 1.21 0.52 75 1014.8
20260904225923 77 0 3.0 8.0 0.01 1.21 0.52 75 1014.8
20260904225423 77 0 3.0 8.0 0.01 1.21 0.52 75 1014.6
20260904224920 77 0 3.0 10.0 0.01 1.21 0.52 74 1014.9
20260904224651 77 0 3.0 10.0 0.01 1.21 0.52 74 1014.6
20260904223921 78 0 2.0 6.0 0.01 1.21 0.52 74 1014.6
20260904223419 78 0 2.0 6.0 0.01 1.21 0.52 74 1015.0
20260904222918 78 0 2.0 6.0 0.01 1.21 0.52 74 1015.0
20260904222420 78 0 3.0 11.0 0.01 1.21 0.52 74 1015.0
20260904221914 78 0 5.0 11.0 0.01 1.21 0.52 74 1015.0
20260904221413 78 0 5.0 10.0 0.01 1.21 0.52 73 1015.0
20260904221144 78 0 4.0 9.0 0.01 1.21 0.52 73 1015.0
20260904220411 78 0 3.0 8.0 0.01 1.21 0.52 73 1015.3
20260904215911 78 0 3.0 5.0 0.00 1.20 0.51 72 1015.4
20260904215411 79 0 3.0 6.0 0.00 1.20 0.51 72 1015.5
20260904214904 79 0 3.0 6.0 0.00 1.20 0.51 73 1015.6
20260904214405 79 0 2.0 5.0 0.00 1.20 0.51 73 1015.5
20260904213906 78 0 2.0 5.0 0.00 1.20 0.51 73 1015.8
20260904213636 78 0 2.0 6.0 0.00 1.20 0.51 73 1015.8
20260904213135 79 0 3.0 6.0 0.00 1.20 0.51 73 1015.7
20260904212405 79 0 2.0 4.0 0.00 1.20 0.51 74 1015.5
20260904211859 79 0 2.0 4.0 0.00 1.20 0.51 74 1015.6
20260904211357 78 181 1.0 4.0 0.00 1.20 0.51 74 1015.4
20260904210855 78 0 3.0 6.0 0.00 1.20 0.51 74 1015.5
20260904210352 78 0 4.0 9.0 0.00 1.20 0.51 74 1015.8
20260904205853 78 0 3.0 9.0 0.00 1.20 0.51 74 1015.8
20260904205347 78 0 4.0 8.0 0.00 1.20 0.51 74 1015.6
20260904204848 78 0 4.0 8.0 0.00 1.20 0.51 74 1015.4
20260904204349 78 0 4.0 8.0 0.00 1.20 0.51 74 1015.3
20260904203848 78 0 4.0 8.0 0.00 1.20 0.51 74 1015.4
20260904203347 78 0 5.0 8.0 0.00 1.20 0.51 74 1015.3
20260904202850 78 0 4.0 8.0 0.00 1.20 0.51 75 1015.4
20260904202611 78 0 3.0 8.0 0.00 1.20 0.51 74 1015.6
20260904201837 78 0 3.0 6.0 0.00 1.20 0.51 75 1015.7
20260904201337 78 0 3.0 8.0 0.00 1.20 0.51 74 1016.0
20260904200835 78 0 2.0 8.0 0.00 1.20 0.51 74 1016.0
20260904200337 78 0 0.0 3.0 0.00 1.20 0.51 73 1016.0
20260904195833 78 0 0.0 0.0 0.00 1.20 0.51 73 1016.1
20260904195330 78 288 0.0 2.0 0.00 1.20 0.51 72 1016.1
20260904194829 79 290 0.0 2.0 0.00 1.20 0.51 73 1016.1
20260904194328 79 0 0.0 2.0 0.00 1.20 0.51 72 1016.3
20260904193828 79 0 0.0 2.0 0.00 1.20 0.51 71 1016.4
20260904193600 79 0 0.0 3.0 0.00 1.20 0.51 70 1016.3
20260904192822 80 0 1.0 3.0 0.00 1.20 0.51 70 1016.3
20260904192320 80 0 1.0 3.0 0.00 1.20 0.51 70 1016.4
20260904191827 80 0 1.0 3.0 0.00 1.20 0.51 68 1016.7
20260904191819 80 0 1.0 3.0 0.00 1.20 0.51 69 1016.7
20260904190817 80 0 1.0 3.0 0.00 1.20 0.51 68 1016.9
20260904190314 80 9 2.0 5.0 0.00 1.20 0.51 68 1016.6
20260904190309 80 11 1.0 4.0 0.00 1.20 0.51 68 1016.7
20260904185541 81 10 1.0 5.0 0.00 1.20 0.51 68 1016.4
20260904184811 81 0 1.0 4.0 0.00 1.20 0.51 67 1016.3
20260904184309 81 279 1.0 5.0 0.00 1.20 0.51 68 1016.3
20260904183809 80 326 2.0 5.0 0.00 1.20 0.51 68 1016.3
20260904183309 80 0 2.0 5.0 0.00 1.20 0.51 67 1016.4
20260904182806 81 34 2.0 5.0 0.00 1.20 0.51 66 1016.2
20260904182306 81 0 3.0 6.0 0.00 1.20 0.51 68 1016.3
20260904181806 81 0 2.0 6.0 0.00 1.20 0.51 70 1016.5
20260904181306 80 0 3.0 8.0 0.00 1.20 0.51 71 1016.9
20260904180807 79 0 4.0 8.0 0.00 1.20 0.51 73 1017.0
20260904180533 79 0 4.0 8.0 0.00 1.20 0.51 73 1017.0
20260904175803 78 0 5.0 9.0 0.00 1.20 0.51 74 1017.1
20260904175306 78 0 5.0 9.0 0.00 1.20 0.51 74 1017.1
20260904174302 78 0 3.0 8.0 0.01 1.20 0.51 74 1016.9
20260904173803 77 0 3.0 7.0 0.03 1.20 0.51 75 1016.9
20260904173258 76 0 1.0 4.0 0.08 1.20 0.51 77 1017.2
20260904172758 75 144 0.0 3.0 0.11 1.20 0.51 77 1017.1
20260904172259 75 143 0.0 3.0 0.11 1.20 0.51 77 1017.1
20260904172029 75 144 1.0 3.0 0.11 1.20 0.51 77 1017.0
20260904171259 75 148 2.0 3.0 0.11 1.20 0.51 76 1017.0
20260904170759 75 175 2.0 5.0 0.11 1.20 0.51 76 1017.2
20260904170524 75 183 1.0 5.0 0.11 1.20 0.51 75 1017.4
20260904165753 75 224 1.0 4.0 0.11 1.20 0.51 75 1017.5
20260904165527 76 0 1.0 21.0 0.11 1.20 0.51 75 1017.5
20260904164754 76 0 5.0 21.0 0.11 1.20 0.51 74 1017.3
20260904164255 77 0 9.0 25.0 0.10 1.19 0.50 73 1017.7
20260904163754 79 349 8.0 29.0 0.08 1.17 0.48 71 1018.1
20260904163249 82 0 5.0 29.0 0.03 1.12 0.43 66 1017.9
20260904162749 83 0 3.0 9.0 0.00 1.09 0.40 63 1017.4
20260904162519 83 0 3.0 9.0 0.00 1.09 0.40 63 1016.9
20260904161747 84 0 3.0 9.0 0.00 1.09 0.40 63 1017.1
20260904161246 84 0 5.0 10.0 0.00 1.09 0.40 62 1017.0
20260904160744 84 0 5.0 12.0 0.00 1.09 0.40 63 1016.7
20260904160242 84 0 5.0 12.0 0.00 1.09 0.40 63 1016.8
20260904155742 83 0 5.0 9.0 0.00 1.09 0.40 62 1017.0
20260904155237 83 0 5.0 9.0 0.00 1.09 0.40 63 1017.0
20260904154735 83 0 3.0 9.0 0.00 1.09 0.40 63 1017.0
20260904154235 83 0 3.0 8.0 0.00 1.09 0.40 64 1017.1
20260904154007 82 0 4.0 10.0 0.00 1.09 0.40 64 1017.1
20260904153234 82 0 5.0 10.0 0.00 1.09 0.40 63 1017.3
20260904152734 82 0 4.0 9.0 0.00 1.09 0.40 64 1017.2
20260904152225 82 193 4.0 9.0 0.00 1.09 0.40 64 1017.1
20260904151724 82 0 4.0 9.0 0.00 1.09 0.40 63 1017.1
20260904151224 81 0 2.0 8.0 0.00 1.09 0.40 64 1017.0
20260904150955 81 0 2.0 5.0 0.00 1.09 0.40 66 1017.0
20260904150224 81 221 2.0 4.0 0.00 1.09 0.40 65 1017.0
20260904145724 81 0 3.0 5.0 0.00 1.09 0.40 67 1017.1
20260904145217 80 0 2.0 5.0 0.00 1.09 0.40 66 1017.1
20260904144718 80 215 1.0 4.0 0.00 1.09 0.40 67 1017.1
20260904144217 80 215 1.0 4.0 0.00 1.09 0.40 67 1017.1
20260904143717 80 0 1.0 3.0 0.00 1.09 0.40 67 1017.2
20260904143217 80 0 1.0 3.0 0.00 1.09 0.40 70 1017.2
20260904142723 78 0 0.0 2.0 0.00 1.12 0.40 72 1017.0
20260904142717 79 240 0.0 2.0 0.00 1.10 0.40 70 1017.0
20260904141945 77 252 1.0 3.0 0.00 1.12 0.40 71 1017.0
20260904141213 77 0 1.0 3.0 0.00 1.13 0.40 73 1016.9
20260904140713 77 0 1.0 4.0 0.00 1.13 0.40 74 1016.9
20260904140214 76 0 1.0 4.0 0.00 1.13 0.40 75 1016.8
20260904135713 76 0 1.0 4.0 0.00 1.13 0.40 76 1016.9
20260904135214 75 0 1.0 3.0 0.00 1.13 0.40 77 1016.9
20260904134705 75 157 1.0 3.0 0.00 1.13 0.40 77 1016.9
20260904134205 75 157 1.0 3.0 0.00 1.13 0.40 78 1017.0
20260904133706 74 157 0.0 3.0 0.00 1.13 0.40 80 1016.9
20260904133207 74 157 0.0 0.0 0.00 1.13 0.40 80 1017.1
20260904132707 74 0 0.0 0.0 0.00 1.13 0.40 81 1017.0
20260904132206 73 0 0.0 0.0 0.00 1.13 0.40 81 1017.2
20260904131701 73 157 0.0 0.0 0.00 1.13 0.40 81 1017.2
20260904131206 73 0 0.0 0.0 0.00 1.13 0.40 82 1017.3
20260904131201 73 0 0.0 0.0 0.00 1.13 0.40 81 1017.3
20260904130202 72 0 0.0 0.0 0.00 1.13 0.40 82 1017.3
20260904125700 72 157 0.0 0.0 0.00 1.13 0.40 81 1017.6
20260904125159 72 157 0.0 0.0 0.00 1.13 0.40 82 1017.7
20260904124658 71 157 0.0 0.0 0.00 1.13 0.40 82 1017.7
20260904124155 71 157 0.0 0.0 0.00 1.13 0.40 82 1017.7
20260904123924 71 157 0.0 0.0 0.00 1.13 0.40 82 1017.6
20260904123425 70 0 0.0 0.0 0.00 1.13 0.40 82 1017.7
20260904122654 70 157 0.0 0.0 0.00 1.13 0.40 81 1017.6
20260904122157 70 157 0.0 0.0 0.00 1.13 0.40 81 1017.5
20260904121648 69 157 0.0 0.0 0.00 1.13 0.40 81 1017.6
20260904121146 69 0 0.0 0.0 0.00 1.13 0.40 81 1017.6
20260904120644 69 0 0.0 0.0 0.00 1.13 0.40 81 1017.5
20260904120142 69 157 0.0 0.0 0.00 1.13 0.40 81 1017.3
20260904115644 69 157 0.0 0.0 0.00 1.13 0.40 81 1017.1
20260904115136 69 0 0.0 0.0 0.00 1.13 0.40 81 1017.3
20260904114634 69 0 0.0 0.0 0.00 1.13 0.40 81 1017.1
20260904114132 69 0 0.0 0.0 0.00 1.13 0.40 81 1017.1
20260904113631 69 0 0.0 0.0 0.00 1.13 0.40 81 1017.2
20260904113132 68 0 0.0 0.0 0.00 1.13 0.40 81 1017.1
20260904112626 68 0 0.0 0.0 0.00 1.13 0.40 81 1017.3